UAE921 OMDB-HECA

Flight info

Callsign UAE921
Flight time N/A
Altitude 32000
Route SENPA N571 ALPOB L768 VATIM L550 NOVPA N697 MENLI L677 CVO
Aircraft B77L/H-SDE1E2E3FGHIJ2J3J4J5M1RWXY/LB1D1

Departure

Time N/A
Airport Dubai International Airport (OMDB)

Arrival

Time 2026-04-30 20:23
Airport Cairo International Airport (HECA)
Time Latitude Longitude Altitude Speed Heading
2026-04-30 17:39 26.46625 51.25186 31900 ft 446 kts 284°
2026-04-30 17:42 26.56972 50.92543 31895 ft 445 kts 283°
2026-04-30 17:43 26.61980 50.76259 31897 ft 444 kts 283°
2026-04-30 17:44 26.67547 50.57780 31904 ft 442 kts 282°
2026-04-30 17:47 26.75536 50.28314 31910 ft 439 kts 281°
2026-04-30 17:48 26.82292 50.05498 31918 ft 441 kts 282°
2026-04-30 17:50 26.89991 49.79458 31918 ft 441 kts 282°
2026-04-30 17:52 26.95737 49.59900 31915 ft 440 kts 282°
2026-04-30 17:54 27.06186 49.31230 31918 ft 450 kts 292°
2026-04-30 17:56 27.18440 49.06832 31937 ft 448 kts 292°
2026-04-30 17:58 27.27596 48.88512 31941 ft 448 kts 292°
2026-04-30 18:00 27.39748 48.64112 31955 ft 447 kts 292°
2026-04-30 18:01 27.47312 48.48849 31965 ft 446 kts 292°
2026-04-30 18:02 27.56360 48.30521 31963 ft 446 kts 292°
2026-04-30 18:04 27.65339 48.12213 31970 ft 445 kts 292°
2026-04-30 18:06 27.77270 47.87768 31978 ft 445 kts 292°
2026-04-30 18:08 27.86621 47.65938 31991 ft 436 kts 283°
2026-04-30 18:09 27.90593 47.52971 32171 ft 442 kts 284°
2026-04-30 18:10 27.94581 47.40047 34018 ft 430 kts 282°
2026-04-30 18:11 27.98512 47.27230 35034 ft 430 kts 282°
2026-04-30 18:11 28.01432 47.17685 35796 ft 429 kts 282°
2026-04-30 18:12 28.04375 47.08034 35988 ft 432 kts 282°
2026-04-30 18:13 28.06327 47.01630 35990 ft 427 kts 282°
2026-04-30 18:14 28.11146 46.85826 36003 ft 424 kts 283°
2026-04-30 18:15 28.17439 46.67082 36003 ft 426 kts 283°
2026-04-30 18:16 28.21626 46.54464 36004 ft 428 kts 283°
2026-04-30 18:17 28.23718 46.48141 36012 ft 428 kts 283°
2026-04-30 18:18 28.26853 46.38643 36019 ft 429 kts 283°
2026-04-30 18:18 28.28941 46.32306 36022 ft 429 kts 283°
2026-04-30 18:19 28.31023 46.25972 36019 ft 428 kts 283°
2026-04-30 18:19 28.33087 46.19681 36019 ft 428 kts 283°
2026-04-30 18:20 28.35159 46.13359 36027 ft 427 kts 283°
2026-04-30 18:20 28.37332 46.07070 36025 ft 428 kts 285°
2026-04-30 18:21 28.39689 46.00850 36028 ft 429 kts 286°
2026-04-30 18:21 28.42047 45.94629 36019 ft 428 kts 285°
2026-04-30 18:22 28.44372 45.88414 36010 ft 427 kts 285°
2026-04-30 18:22 28.47827 45.79096 36009 ft 426 kts 285°
2026-04-30 18:23 28.50124 45.72884 36008 ft 426 kts 285°
2026-04-30 18:23 28.52412 45.66686 36006 ft 425 kts 285°
2026-04-30 18:24 28.55823 45.57427 36004 ft 424 kts 285°
2026-04-30 18:25 28.58102 45.51230 36010 ft 424 kts 285°
2026-04-30 18:25 28.61514 45.41930 36009 ft 424 kts 285°
2026-04-30 18:26 28.64916 45.32636 36005 ft 424 kts 285°
2026-04-30 18:27 28.68319 45.23317 36005 ft 424 kts 285°
2026-04-30 18:28 28.71695 45.14047 36003 ft 424 kts 285°
2026-04-30 18:28 28.75089 45.04702 36004 ft 425 kts 285°
2026-04-30 18:29 28.79222 44.93291 36008 ft 426 kts 285°
2026-04-30 18:30 28.84104 44.79767 36004 ft 426 kts 285°
2026-04-30 18:31 28.86184 44.71149 36015 ft 418 kts 275°
2026-04-30 18:32 28.87105 44.61344 36011 ft 416 kts 271°
2026-04-30 18:33 28.87861 44.51435 36002 ft 418 kts 271°
2026-04-30 18:33 28.88641 44.41506 35999 ft 419 kts 271°
2026-04-30 18:34 28.89424 44.31556 36003 ft 420 kts 271°
2026-04-30 18:35 28.89940 44.24953 36006 ft 420 kts 271°
2026-04-30 18:35 28.90456 44.18304 36002 ft 420 kts 271°
2026-04-30 18:36 28.91222 44.08340 36002 ft 420 kts 271°
2026-04-30 18:37 28.91980 43.98386 36003 ft 419 kts 271°
2026-04-30 18:37 28.92477 43.91802 36007 ft 419 kts 271°
2026-04-30 18:38 28.92974 43.85180 36010 ft 419 kts 271°
2026-04-30 18:38 28.93468 43.78551 36010 ft 418 kts 271°
2026-04-30 18:39 28.93958 43.71932 36004 ft 418 kts 271°
2026-04-30 18:39 28.94445 43.65313 36011 ft 418 kts 271°
2026-04-30 18:40 28.94929 43.58696 36009 ft 418 kts 271°
2026-04-30 18:40 28.95407 43.52119 36012 ft 418 kts 271°
2026-04-30 18:41 28.95879 43.45505 36012 ft 418 kts 271°
2026-04-30 18:41 28.96347 43.38880 36010 ft 418 kts 271°
2026-04-30 18:42 28.96812 43.32266 36012 ft 418 kts 271°
2026-04-30 18:42 28.97504 43.22326 36014 ft 418 kts 271°
2026-04-30 18:45 28.99983 42.85862 36011 ft 419 kts 271°
2026-04-30 18:46 29.00423 42.79220 36012 ft 419 kts 271°
2026-04-30 18:46 29.00861 42.72571 36015 ft 420 kts 271°
2026-04-30 18:47 29.01296 42.65926 36012 ft 420 kts 271°
2026-04-30 18:47 29.01727 42.59266 36016 ft 420 kts 271°
2026-04-30 18:48 29.02156 42.52608 36012 ft 420 kts 271°
2026-04-30 18:48 29.02578 42.46004 36012 ft 420 kts 271°
2026-04-30 18:49 29.02999 42.39357 36013 ft 420 kts 271°
2026-04-30 18:49 29.03418 42.32699 36013 ft 420 kts 271°
2026-04-30 18:50 29.03833 42.26048 36014 ft 419 kts 271°
2026-04-30 18:50 29.04245 42.19397 36015 ft 419 kts 271°
2026-04-30 18:51 29.04655 42.12746 36005 ft 419 kts 271°
2026-04-30 18:51 29.05061 42.06099 36021 ft 419 kts 271°
2026-04-30 18:52 29.05466 41.99450 36010 ft 419 kts 271°
2026-04-30 18:52 29.05864 41.92838 36008 ft 419 kts 271°
2026-04-30 18:53 29.06265 41.86188 36019 ft 419 kts 271°
2026-04-30 18:53 29.06665 41.79522 36015 ft 419 kts 272°
2026-04-30 18:54 29.07061 41.72864 36014 ft 419 kts 271°
2026-04-30 18:54 29.07450 41.66254 36006 ft 419 kts 271°
2026-04-30 18:55 29.07838 41.59606 36008 ft 419 kts 271°
2026-04-30 18:55 29.08415 41.49632 36008 ft 419 kts 271°
2026-04-30 18:56 29.08983 41.39664 36011 ft 419 kts 271°
2026-04-30 18:57 29.09534 41.29702 36006 ft 418 kts 271°
2026-04-30 18:57 29.09897 41.23063 35998 ft 418 kts 271°
2026-04-30 18:58 29.10422 41.13373 36001 ft 418 kts 271°
2026-04-30 18:59 29.10952 41.03464 35997 ft 418 kts 271°
2026-04-30 19:00 29.11651 40.90194 35989 ft 417 kts 271°
2026-04-30 19:01 29.12335 40.76940 35984 ft 417 kts 271°
2026-04-30 19:02 29.12839 40.67002 35984 ft 416 kts 271°
2026-04-30 19:03 29.13208 40.53837 35974 ft 415 kts 267°
2026-04-30 19:04 29.12746 40.40643 35971 ft 415 kts 266°
2026-04-30 19:05 29.12299 40.27466 35965 ft 416 kts 267°
2026-04-30 19:06 29.11843 40.14238 35970 ft 417 kts 267°
2026-04-30 19:06 29.11491 40.04287 35958 ft 417 kts 267°
2026-04-30 19:07 29.11134 39.94346 35957 ft 417 kts 267°
2026-04-30 19:08 29.10974 39.81122 35954 ft 417 kts 270°
2026-04-30 19:09 29.11066 39.71183 35952 ft 416 kts 269°
2026-04-30 19:09 29.11095 39.64567 35947 ft 416 kts 269°
2026-04-30 19:10 29.11124 39.51349 35944 ft 416 kts 269°
2026-04-30 19:11 29.11137 39.41477 35937 ft 416 kts 269°
2026-04-30 19:12 29.11142 39.34861 35937 ft 416 kts 269°
2026-04-30 19:12 29.11144 39.28241 35934 ft 416 kts 269°
2026-04-30 19:13 29.11138 39.14984 35922 ft 417 kts 269°
2026-04-30 19:14 29.11130 39.08391 35925 ft 417 kts 269°
2026-04-30 19:14 29.11119 39.01753 35918 ft 417 kts 269°
2026-04-30 19:15 29.11105 38.95110 35919 ft 418 kts 269°
2026-04-30 19:15 29.11071 38.85132 35911 ft 418 kts 269°
2026-04-30 19:16 29.11042 38.78474 35913 ft 418 kts 269°
2026-04-30 19:17 29.10999 38.69616 35914 ft 418 kts 269°
2026-04-30 19:17 29.10938 38.58551 35983 ft 418 kts 269°
2026-04-30 19:18 29.10883 38.49647 35983 ft 418 kts 269°
2026-04-30 19:19 29.10839 38.43029 35977 ft 419 kts 269°
2026-04-30 19:19 29.10761 38.33029 35975 ft 419 kts 269°
2026-04-30 19:20 29.10701 38.26362 35980 ft 419 kts 269°
2026-04-30 19:21 29.10604 38.16342 35965 ft 420 kts 269°
2026-04-30 19:22 29.10466 38.03042 35958 ft 419 kts 269°
2026-04-30 19:23 29.10234 37.83067 35954 ft 418 kts 269°
2026-04-30 19:24 29.10108 37.73121 35950 ft 418 kts 269°
2026-04-30 19:25 29.09881 37.56501 35955 ft 418 kts 269°
2026-04-30 19:26 29.09736 37.43220 35955 ft 418 kts 269°
2026-04-30 19:27 29.09680 37.33301 35954 ft 418 kts 269°
2026-04-30 19:28 29.09607 37.23331 35961 ft 417 kts 269°
2026-04-30 19:29 29.09495 37.10047 35958 ft 417 kts 269°
2026-04-30 19:30 29.09370 36.96851 35958 ft 416 kts 269°
2026-04-30 19:31 29.09232 36.83602 35955 ft 416 kts 269°
2026-04-30 19:31 29.09121 36.73735 35948 ft 415 kts 269°
2026-04-30 19:32 29.09043 36.67126 35950 ft 415 kts 269°
2026-04-30 19:32 29.08961 36.60524 35944 ft 415 kts 269°
2026-04-30 19:33 29.08877 36.53921 35942 ft 416 kts 269°
2026-04-30 19:33 29.08788 36.47313 35946 ft 416 kts 269°
2026-04-30 19:34 29.08625 36.40697 35937 ft 417 kts 268°
2026-04-30 19:35 29.08334 36.30748 35940 ft 417 kts 268°
2026-04-30 19:35 29.08145 36.24119 35927 ft 418 kts 268°
2026-04-30 19:36 29.07956 36.17511 35928 ft 419 kts 269°
2026-04-30 19:36 29.07666 36.07516 35924 ft 419 kts 268°
2026-04-30 19:37 29.07469 36.00845 35929 ft 420 kts 268°
2026-04-30 19:37 29.07268 35.94171 35925 ft 421 kts 269°
2026-04-30 19:38 29.07062 35.87470 35935 ft 421 kts 268°
2026-04-30 19:38 29.06854 35.80771 35939 ft 421 kts 268°
2026-04-30 19:39 29.06643 35.74084 35951 ft 421 kts 268°
2026-04-30 19:39 29.06429 35.67426 35951 ft 422 kts 268°
2026-04-30 19:40 29.06210 35.60720 35957 ft 422 kts 268°
2026-04-30 19:40 29.05989 35.54031 35967 ft 421 kts 268°
2026-04-30 19:41 29.05764 35.47330 35966 ft 421 kts 268°
2026-04-30 19:41 29.05535 35.40637 35967 ft 421 kts 268°
2026-04-30 19:42 29.05305 35.33991 35964 ft 421 kts 268°
2026-04-30 19:42 29.05071 35.27309 35966 ft 421 kts 268°
2026-04-30 19:43 29.04833 35.20611 35960 ft 421 kts 268°
2026-04-30 19:44 29.04470 35.10573 35943 ft 421 kts 268°
2026-04-30 19:44 29.04224 35.03894 35931 ft 420 kts 268°
2026-04-30 19:45 29.03977 34.97271 35941 ft 420 kts 268°
2026-04-30 19:45 29.03725 34.90598 35923 ft 421 kts 268°
2026-04-30 19:46 29.03473 34.83921 35917 ft 421 kts 269°
2026-04-30 19:46 29.03322 34.77237 35917 ft 420 kts 270°
2026-04-30 19:47 29.03363 34.70576 35925 ft 419 kts 276°
2026-04-30 19:47 29.04280 34.64010 35927 ft 419 kts 281°
2026-04-30 19:48 29.05901 34.57642 35944 ft 420 kts 287°
2026-04-30 19:48 29.07797 34.51306 35944 ft 422 kts 287°
2026-04-30 19:49 29.09692 34.44961 35962 ft 421 kts 287°
2026-04-30 19:49 29.12481 34.35449 35977 ft 420 kts 286°
2026-04-30 19:50 29.14331 34.29110 35987 ft 420 kts 287°
2026-04-30 19:50 29.16167 34.22799 36001 ft 421 kts 287°
2026-04-30 19:51 29.18017 34.16429 36006 ft 422 kts 287°
2026-04-30 19:51 29.19867 34.10051 35999 ft 422 kts 287°
2026-04-30 19:52 29.21715 34.03663 36018 ft 422 kts 287°
2026-04-30 19:52 29.23557 33.97287 36013 ft 422 kts 287°
2026-04-30 19:53 29.25385 33.90949 36019 ft 422 kts 287°
2026-04-30 19:53 29.27221 33.84575 36017 ft 421 kts 287°
2026-04-30 19:54 29.29054 33.78196 36020 ft 421 kts 287°
2026-04-30 19:54 29.30883 33.71819 36015 ft 421 kts 287°
2026-04-30 19:55 29.32709 33.65439 36020 ft 421 kts 287°
2026-04-30 19:55 29.34517 33.59111 36021 ft 420 kts 287°
2026-04-30 19:56 29.36342 33.52707 36016 ft 420 kts 287°
2026-04-30 19:56 29.38143 33.46379 36016 ft 419 kts 287°
2026-04-30 19:57 29.39945 33.40030 36025 ft 419 kts 287°
2026-04-30 19:57 29.41743 33.33683 36017 ft 419 kts 287°
2026-04-30 19:58 29.43540 33.27331 36016 ft 416 kts 287°
2026-04-30 19:58 29.44427 33.24192 35913 ft 409 kts 287°
2026-04-30 19:58 29.45302 33.21090 35324 ft 408 kts 287°
2026-04-30 19:59 29.46175 33.17991 34644 ft 407 kts 287°
2026-04-30 19:59 29.47035 33.14933 33903 ft 409 kts 287°
2026-04-30 19:59 29.48774 33.08742 32586 ft 404 kts 287°
2026-04-30 20:00 29.49634 33.05680 32018 ft 401 kts 287°
2026-04-30 20:00 29.50485 33.02644 31443 ft 399 kts 287°
2026-04-30 20:00 29.51333 32.99617 30906 ft 396 kts 287°
2026-04-30 20:00 29.52171 32.96622 30385 ft 393 kts 287°
2026-04-30 20:01 29.53835 32.90668 29201 ft 389 kts 287°
2026-04-30 20:01 29.54660 32.87711 28633 ft 387 kts 287°
2026-04-30 20:01 29.55476 32.84784 28091 ft 384 kts 287°
2026-04-30 20:02 29.57090 32.78983 27033 ft 379 kts 287°
2026-04-30 20:02 29.57620 32.77080 26692 ft 377 kts 287°
2026-04-30 20:03 29.59472 32.70410 25507 ft 373 kts 287°
2026-04-30 20:03 29.59987 32.68530 25177 ft 372 kts 286°
2026-04-30 20:03 29.60679 32.65675 24675 ft 370 kts 285°
2026-04-30 20:03 29.61329 32.62818 24162 ft 369 kts 284°
2026-04-30 20:04 29.61968 32.59963 23675 ft 368 kts 284°
2026-04-30 20:04 29.62603 32.57116 23107 ft 368 kts 284°
2026-04-30 20:04 29.63238 32.54274 22604 ft 365 kts 284°
2026-04-30 20:05 29.64501 32.48654 21623 ft 361 kts 284°
2026-04-30 20:05 29.65128 32.45872 21170 ft 358 kts 284°
2026-04-30 20:05 29.66371 32.40348 20234 ft 355 kts 284°
2026-04-30 20:06 29.66989 32.37603 19775 ft 354 kts 284°
2026-04-30 20:06 29.67595 32.34905 19322 ft 353 kts 284°
2026-04-30 20:06 29.68216 32.32139 18842 ft 353 kts 284°
2026-04-30 20:06 29.68828 32.29407 18375 ft 353 kts 284°
2026-04-30 20:07 29.69434 32.26705 17862 ft 353 kts 284°
2026-04-30 20:07 29.70043 32.23982 17379 ft 351 kts 284°
2026-04-30 20:07 29.71257 32.18548 16459 ft 349 kts 284°
2026-04-30 20:08 29.71859 32.15848 16010 ft 348 kts 284°
2026-04-30 20:08 29.72460 32.13154 15556 ft 347 kts 284°
2026-04-30 20:08 29.73059 32.10462 15097 ft 347 kts 284°
2026-04-30 20:08 29.73657 32.07775 14660 ft 347 kts 284°
2026-04-30 20:09 29.74255 32.05082 14216 ft 347 kts 284°
2026-04-30 20:09 29.74851 32.02394 13761 ft 347 kts 284°
2026-04-30 20:09 29.76048 31.96997 12783 ft 347 kts 285°
2026-04-30 20:10 29.77236 31.91624 11882 ft 345 kts 285°
2026-04-30 20:10 29.77868 31.88965 11434 ft 343 kts 289°
2026-04-30 20:10 29.78794 31.86484 11002 ft 342 kts 297°
2026-04-30 20:11 29.81343 31.82002 10615 ft 326 kts 306°
2026-04-30 20:11 29.82693 31.79933 10459 ft 318 kts 306°
2026-04-30 20:11 29.84004 31.77924 10331 ft 310 kts 306°
2026-04-30 20:12 29.86519 31.74046 10072 ft 294 kts 306°
2026-04-30 20:12 29.87721 31.72171 9868 ft 286 kts 303°
2026-04-30 20:12 29.88489 31.70119 9628 ft 280 kts 280°
2026-04-30 20:13 29.88531 31.67895 9313 ft 278 kts 268°
2026-04-30 20:13 29.88345 31.65682 9032 ft 273 kts 265°
2026-04-30 20:13 29.88124 31.63550 8755 ft 267 kts 265°
2026-04-30 20:13 29.87896 31.61392 8252 ft 274 kts 265°
2026-04-30 20:14 29.87662 31.59237 7888 ft 262 kts 265°
2026-04-30 20:14 29.87435 31.57211 7603 ft 256 kts 265°
2026-04-30 20:14 29.87204 31.55180 7338 ft 250 kts 264°
2026-04-30 20:14 29.86983 31.53242 7096 ft 244 kts 264°
2026-04-30 20:15 29.86762 31.51307 6725 ft 245 kts 264°
2026-04-30 20:15 29.86544 31.49378 6702 ft 244 kts 264°
2026-04-30 20:15 29.86328 31.47374 6385 ft 255 kts 268°
2026-04-30 20:15 29.86588 31.45389 6129 ft 251 kts 293°
2026-04-30 20:16 29.87387 31.43627 5850 ft 243 kts 300°
2026-04-30 20:16 29.88242 31.42032 5568 ft 225 kts 301°
2026-04-30 20:16 29.89064 31.40536 5322 ft 219 kts 301°
2026-04-30 20:16 29.89867 31.39076 5068 ft 213 kts 301°
2026-04-30 20:17 29.90664 31.37635 4833 ft 212 kts 301°
2026-04-30 20:17 29.91454 31.36209 4578 ft 211 kts 302°
2026-04-30 20:17 29.92238 31.34787 4363 ft 207 kts 302°
2026-04-30 20:17 29.92987 31.33431 4283 ft 202 kts 302°
2026-04-30 20:18 29.93751 31.32038 4232 ft 203 kts 302°
2026-04-30 20:18 29.94684 31.30832 3969 ft 208 kts 329°
2026-04-30 20:18 29.96037 31.30455 3911 ft 198 kts 358°
2026-04-30 20:18 29.97423 31.30536 3716 ft 200 kts
2026-04-30 20:19 29.98800 31.30665 3508 ft 197 kts
2026-04-30 20:19 30.00166 31.30801 3291 ft 196 kts
2026-04-30 20:19 30.01435 31.31316 2967 ft 197 kts 37°
2026-04-30 20:19 30.02397 31.32346 2813 ft 180 kts 40°
2026-04-30 20:20 30.03257 31.33329 2575 ft 170 kts 45°
2026-04-30 20:20 30.04027 31.34321 2303 ft 159 kts 47°
2026-04-30 20:20 30.04728 31.35253 1984 ft 149 kts 48°
2026-04-30 20:20 30.05383 31.36128 1774 ft 144 kts 48°
2026-04-30 20:21 30.06027 31.36987 1606 ft 142 kts 49°
2026-04-30 20:21 30.06674 31.37852 1403 ft 144 kts 47°
2026-04-30 20:21 30.07334 31.38732 1247 ft 146 kts 47°
2026-04-30 20:21 30.07995 31.39613 1016 ft 143 kts 47°
2026-04-30 20:22 30.08630 31.40459 791 ft 137 kts 49°
2026-04-30 20:22 30.09254 31.41303 566 ft 139 kts 47°
2026-04-30 20:22 30.09891 31.42143 390 ft 138 kts 47°
2026-04-30 20:22 30.10455 31.42888 379 ft 103 kts 48°
2026-04-30 20:23 30.10823 31.43375 379 ft 51 kts 50°
2026-04-30 20:23 30.11042 31.43667 378 ft 46 kts 48°
2026-04-30 20:23 30.11240 31.43903 378 ft 33 kts 37°
2026-04-30 20:23 30.11427 31.44025 379 ft 29 kts 23°
2026-04-30 20:24 30.11538 31.44085 379 ft 13 kts 24°
2026-04-30 20:24 30.11623 31.44093 379 ft 12 kts 338°
2026-04-30 20:24 30.11641 31.44014 379 ft 11 kts 244°
2026-04-30 20:24 30.11598 31.43949 379 ft 11 kts 230°
2026-04-30 20:25 30.11418 31.43711 379 ft 24 kts 229°
2026-04-30 20:25 30.11313 31.43570 379 ft 22 kts 230°
2026-04-30 20:26 30.11270 31.43396 379 ft 12 kts 317°
2026-04-30 20:26 30.11435 31.43230 379 ft 16 kts 319°
2026-04-30 20:26 30.11517 31.43149 379 ft 17 kts 320°
2026-04-30 20:27 30.11694 31.42973 379 ft 16 kts 319°
2026-04-30 20:27 30.11867 31.42802 379 ft 18 kts 319°
2026-04-30 20:28 30.12055 31.42616 376 ft 18 kts 320°
2026-04-30 20:28 30.12205 31.42417 379 ft 15 kts 268°
2026-04-30 20:29 30.12075 31.42233 379 ft 16 kts 230°
2026-04-30 20:30 30.11752 31.41800 379 ft 20 kts 229°
2026-04-30 20:30 30.11526 31.41496 379 ft 0 kts 244°
2026-04-30 20:31 30.11623 31.41409 379 ft 15 kts 336°
2026-04-30 20:32 30.11675 31.41174 379 ft 13 kts 343°
2026-04-30 20:32 30.11719 31.41067 379 ft 5 kts 251°
2026-04-30 20:33 30.11715 31.41055 379 ft 1 kts 251°
2026-04-30 20:33 30.11714 31.41052 379 ft 0 kts 251°